Regional Weather Roundup
Issued by NWS

Home | Current Version | Previous Version | Graphics & Text | Print | Product List | Glossary On
Versions: 1 2 3 4 5 6 7 8 9 10 11 12 13 14 15 16 17 18 19 20 21 22 23 24 25 26 27 28 29 30 31 32 33 34 35 36 37 38 39 40 41 42 43 44 45 46 47 48 49 50
000
ASUS43 KFSD 300102
RWRSD

WEATHER ROUNDUP FOR SOUTH DAKOTA
NATIONAL WEATHER SERVICE SIOUX FALLS SD
800 PM CDT SUN MAR 29 2015

NOTE: "FAIR" INDICATES FEW OR NO CLOUDS BELOW 12,000 FEET WITH NO
SIGNIFICANT WEATHER AND/OR OBSTRUCTIONS TO VISIBILITY.


SDZ001>005-009-010-012>017-300200-
NORTHWEST AND NORTH CENTRAL SOUTH DAKOTA

CITY           SKY/WX    TMP DP  RH WIND       PRES   REMARKS
BUFFALO          N/A     54  27  35 W10       29.96F
FAITH            N/A     53  27  36 W6        30.02S
MOBRIDGE       CLEAR     53  30  41 NW3       29.97S
$$

SDZ012>016-024>037-041>051-057-063-072>074-300200-
SOUTHWEST AND SOUTH CENTRAL SOUTH DAKOTA

CITY           SKY/WX    TMP DP  RH WIND       PRES   REMARKS
RAPID CTY ARPT CLOUDY    57  28  33 NE3       30.05F
PIERRE         CLEAR     55  28  35 NW6       30.02S
CUSTER         PTCLDY    51  19  28 CALM      30.09F
ELLSWORTH AFB  CLOUDY    57  29  34 S8        30.05S
PHILIP         PTCLDY    57  24  28 NW7       30.04R
PINE RIDGE     MOCLDY    59  23  25 NW5       30.08S
WINNER         FAIR      58  20  22 W5        30.07S
$$

SDZ004>011-016>023-039-040-300200-
NORTHEAST SOUTH DAKOTA

CITY           SKY/WX    TMP DP  RH WIND       PRES   REMARKS
ABERDEEN       CLEAR     50  23  34 NW8       30.00S
WATERTOWN      CLEAR     46  26  45 NW6       30.00R
SISSETON         N/A     47  29  49 NW8       29.96R
$$

SDZ017-020-022-023-036>040-048>070-300200-
SOUTHEAST SOUTH DAKOTA

CITY           SKY/WX    TMP DP  RH WIND       PRES   REMARKS
SIOUX FALLS    CLEAR     49  20  31 NW8       30.04R
HURON          CLEAR     49  20  31 NW9       30.02S
MITCHELL       CLEAR     51  21  30 NW7       30.05S
YANKTON        CLEAR     52  18  25 NW9       30.08R
$$

ABBREVIATIONS USED IN REMARKS
   TC - TEMPERATURE IN CELSIUS
  WCI - WIND CHILL INDEX
   HX - HEAT INDEX
  VSB - VISIBILITY



USA.gov is the U.S. government's official web portal to all federal, state and local government web resources and services.